Theta_e
322 323 322 318 316 316 319 320 319 319 319 319 318 316 312 311 311 310 307 305 305 305 305 305 306 307 309 312 314 314 311 308 308 307 306 307 306 305 305 305 309 314
326 326 325 323 321 319 320 320 319 319 319 319 317 313 307 305 306 306 305 305 305 305 305 305 305 308 309 309 310 311 307 306 308 307 305 306 306 305 304 303 307 313
324 325 325 324 320 315 313 313 312 316 320 320 315 308 304 305 305 305 305 306 306 305 305 305 305 307 308 306 307 308 306 305 306 305 304 305 305 305 305 305 309 314
322 322 319 315 312 308 307 307 307 311 317 317 311 306 306 307 306 306 306 306 306 306 306 306 307 308 308 308 308 307 307 306 306 307 306 305 305 306 306 307 310 313
321 322 317 309 307 308 307 306 306 307 309 309 307 306 307 307 307 308 307 307 307 307 307 307 307 308 308 310 311 310 309 308 308 310 309 307 308 308 308 307 308 312
320 323 320 313 308 307 307 307 307 307 306 306 306 306 307 308 309 308 308 309 309 308 309 308 308 308 309 312 316 317 317 314 311 313 314 312 311 311 312 312 312 311
321 323 323 319 314 309 307 306 306 307 307 307 306 307 307 308 309 309 308 310 313 315 315 313 310 310 311 315 318 319 319 317 315 318 319 316 314 313 314 314 314 314
321 324 324 322 321 315 310 307 307 307 307 307 307 307 308 308 309 309 308 311 317 320 321 319 318 316 317 320 320 318 318 318 318 320 320 318 317 317 316 313 312 315
322 324 324 324 324 321 316 313 311 309 307 307 308 307 308 310 311 309 308 313 319 322 322 322 322 320 320 321 320 319 319 319 319 319 319 319 320 320 319 318 316 316
322 322 325 326 324 322 320 317 315 313 311 310 311 310 310 312 314 312 313 317 320 321 321 322 323 322 321 321 321 321 321 321 320 320 320 320 321 321 320 321 320 320
322 323 326 326 324 322 321 318 316 317 317 316 316 316 315 315 315 316 319 320 321 321 321 322 322 322 322 322 322 321 321 322 321 321 322 322 322 322 321 321 321 321
325 325 325 326 324 324 324 322 319 319 318 318 319 320 319 319 318 319 321 321 321 322 322 322 322 321 320 322 323 322 321 321 320 320 321 321 322 322 320 320 320 320
327 327 326 326 326 325 325 323 322 321 319 319 321 321 321 321 320 321 322 321 322 322 322 322 322 321 321 322 322 321 322 322 321 319 319 320 321 322 321 321 321 320
325 327 327 326 325 325 323 321 321 321 321 321 321 321 321 322 321 322 322 322 322 322 322 322 322 322 322 322 322 322 322 323 322 320 319 320 320 321 321 321 321 320
324 326 326 325 324 324 322 321 320 319 321 322 321 321 321 321 321 321 322 322 322 323 322 322 323 322 320 320 321 322 322 322 321 320 320 320 319 318 319 320 320 320
326 326 324 323 324 322 321 322 321 319 320 320 321 321 320 319 319 319 320 321 320 321 322 322 321 320 318 318 319 319 318 319 319 319 319 319 317 317 317 318 318 318
326 325 323 323 323 322 321 322 321 320 320 319 319 321 320 320 320 319 319 319 317 318 321 321 320 319 318 318 318 318 317 317 319 319 318 318 318 316 316 316 317 318
325 324 323 322 323 323 322 321 321 321 321 320 320 320 319 319 319 318 319 318 316 318 320 319 318 318 318 318 317 316 315 315 317 319 318 318 318 316 316 316 317 318
324 324 323 322 323 322 322 321 321 321 320 319 318 318 317 318 318 318 319 318 318 319 319 318 318 318 317 316 314 314 312 311 315 317 316 317 317 316 316 316 316 316
323 323 323 322 321 321 321 321 320 320 320 319 319 319 318 318 318 318 318 317 318 319 318 317 317 316 315 314 313 312 308 307 308 309 311 313 311 311 313 314 313 314
319 319 320 320 320 320 320 319 319 319 319 318 318 318 317 317 317 316 315 316 317 317 316 316 316 315 314 312 309 306 303 303 303 305 309 311 308 305 308 309 309 310
314 315 315 316 317 317 318 318 317 317 317 316 316 315 315 316 315 314 313 315 316 314 313 312 311 310 308 305 304 302 301 305 309 310 313 313 310 307 307 306 304 305
313 313 313 314 314 314 315 315 315 316 315 315 315 315 314 315 314 313 313 313 313 313 311 308 305 304 303 301 302 302 302 307 312 312 313 313 312 310 307 303 300 302
312 312 312 313 313 313 314 313 313 313 313 313 314 314 313 314 313 313 312 311 311 312 312 308 303 302 303 302 302 302 301 305 310 312 312 311 312 312 309 303 299 300
311 312 312 312 312 312 313 312 312 312 312 312 312 311 312 312 312 311 311 311 311 312 311 310 307 303 302 302 302 302 301 304 309 311 310 310 311 311 310 306 301 301
310 311 311 311 311 311 312 311 311 311 312 312 311 311 311 311 310 311 310 311 312 310 308 309 309 304 302 302 302 302 301 302 307 310 309 309 310 309 310 309 305 303
Wind_Speed
13 14 14 14 14 14 14 13 13 14 13 14 13 13 13 12 12 11 11 10 9 9 9 9 9 8 8 9 9 7 6 8 8 8 9 9 8 8 8 8 10 10
12 13 13 13 13 14 14 15 15 15 14 14 14 14 14 14 13 12 12 12 11 11 11 10 11 10 9 9 10 9 8 9 9 8 9 9 9 8 8 9 10 11
13 13 14 15 14 14 15 17 18 18 15 14 16 15 14 14 14 13 13 12 11 11 11 11 11 11 10 10 10 10 9 10 10 9 9 10 10 9 10 10 11 10
13 13 14 16 15 14 14 15 17 19 18 17 17 16 14 14 14 14 13 13 12 11 11 11 11 10 10 10 10 10 10 10 10 10 9 9 9 9 10 10 10 10
15 14 14 16 16 15 15 16 16 17 19 20 19 17 15 13 13 13 13 13 12 10 10 9 9 9 9 9 8 8 9 8 9 9 8 8 8 8 8 8 8 9
18 16 16 17 17 16 16 17 17 17 17 19 19 18 16 14 12 12 12 12 11 10 9 8 7 7 7 7 7 7 6 5 7 7 6 6 6 6 7 6 6 6
21 18 17 17 17 17 17 17 17 18 18 18 18 17 16 15 13 12 11 11 10 9 8 7 7 6 6 7 6 6 5 4 5 6 4 3 3 4 3 3 4 4
21 19 17 17 16 16 16 17 18 18 19 18 18 17 16 16 14 13 12 11 11 10 9 8 7 7 7 8 7 6 5 5 5 5 4 2 3 2 1 0 2 2
22 20 18 17 16 15 15 16 18 19 19 19 18 17 17 16 15 14 13 12 11 11 10 9 9 8 8 8 6 5 4 3 4 5 4 3 3 3 2 1 1 1
22 20 17 16 16 16 16 17 18 18 18 18 17 17 17 17 16 14 13 12 12 11 10 10 10 9 8 8 7 6 5 3 3 4 4 4 4 4 4 4 3 2
19 18 17 16 17 19 19 19 18 18 17 17 16 16 17 17 16 15 13 13 12 11 11 11 11 11 10 9 8 7 7 6 6 5 6 6 6 7 7 6 5 5
16 17 17 16 17 19 18 17 17 17 17 16 15 15 16 16 15 14 14 13 12 12 11 11 12 12 10 9 8 8 8 8 8 8 8 8 8 8 8 7 6 6
14 17 18 17 18 19 18 16 16 17 17 17 17 16 16 16 15 14 15 14 12 12 12 11 12 12 10 9 9 8 9 10 10 11 11 12 11 10 8 7 6 6
15 15 17 17 18 20 20 18 19 20 19 18 18 18 17 17 16 15 15 14 13 13 13 12 12 12 10 9 9 9 10 11 12 12 13 13 13 11 8 8 8 7
15 14 14 14 15 17 19 19 21 22 21 18 17 18 19 18 17 16 15 14 13 13 13 14 15 14 12 12 12 12 12 13 13 14 12 11 10 9 7 7 7 8
12 12 12 12 13 14 16 17 19 21 21 18 15 17 18 18 16 15 15 15 14 14 14 16 15 13 13 14 14 14 13 12 11 10 8 6 4 5 5 4 3 4
8 7 8 9 9 9 13 16 17 19 20 18 18 18 17 16 16 14 13 13 14 14 14 13 12 12 12 12 12 11 9 7 4 3 2 2 1 3 2 1 1 2
8 7 7 7 6 7 10 13 15 16 15 15 17 19 19 18 18 17 15 15 14 13 12 10 9 8 7 7 7 6 5 3 1 0 1 2 2 2 1 1 1 1
7 7 6 7 7 7 7 9 11 11 11 11 12 15 17 17 16 14 13 12 9 9 8 6 5 6 6 6 6 6 5 3 2 2 2 2 2 2 2 2 1 1
6 6 6 6 6 6 6 7 8 8 8 8 9 10 10 10 10 9 8 6 5 6 6 7 8 7 7 6 5 4 4 3 3 4 3 3 3 3 3 2 3 2
6 6 5 5 5 5 5 5 5 5 5 6 7 7 7 7 7 7 6 6 8 8 6 7 7 6 6 5 4 4 3 3 2 3 3 2 2 2 3 3 5 5
6 6 5 5 5 5 5 4 4 4 4 5 5 5 6 7 6 6 7 8 8 7 6 6 6 5 5 4 3 2 2 3 1 1 3 2 1 2 4 5 5 5
5 4 4 5 5 5 5 5 5 6 5 5 6 5 6 8 7 7 8 8 8 7 5 6 6 4 4 3 2 1 2 3 2 2 3 2 1 1 4 6 5 4
4 3 3 4 3 4 5 5 5 6 6 6 6 6 6 7 7 7 8 8 8 8 6 5 5 4 4 3 2 2 1 3 3 3 2 1 1 1 3 6 5 5
2 2 2 2 3 3 4 5 4 4 5 6 6 7 7 8 8 8 9 8 9 9 9 8 6 5 4 3 3 3 2 3 4 4 4 3 2 2 4 6 5 5
3 4 4 4 5 5 6 6 6 6 7 7 7 8 9 10 10 10 10 10 10 10 10 9 8 7 5 4 4 3 3 4 4 4 5 5 4 4 5 7 7 5
Wind_Direction
158 153 151 148 149 151 152 155 155 151 151 151 149 148 149 146 143 141 137 131 128 127 124 123 121 115 115 113 102 93 100 101 92 91 93 87 85 88 86 93 88 65
165 160 152 148 153 159 162 163 161 156 153 153 155 154 152 149 145 141 134 128 126 123 119 119 118 110 109 113 106 99 103 103 94 90 96 91 85 87 88 89 83 65
171 167 157 156 164 171 173 171 165 159 154 160 164 157 151 149 146 142 135 130 129 127 124 120 117 112 110 109 105 102 102 103 100 97 98 99 96 95 95 92 83 65
176 174 166 165 172 177 176 174 171 165 162 166 167 158 153 153 151 146 141 138 136 133 130 125 119 116 115 111 106 106 106 102 101 98 96 100 100 98 97 96 91 74
181 181 176 174 176 180 180 179 179 174 168 167 165 162 161 161 159 155 149 146 144 140 137 132 126 123 119 113 107 103 102 103 103 96 93 96 94 94 92 87 87 80
190 189 187 182 180 185 186 184 183 180 175 172 169 167 166 167 170 166 159 154 151 150 148 142 137 135 128 120 115 108 102 104 101 92 87 91 92 92 88 78 73 68
197 194 194 189 186 189 190 189 188 184 181 179 174 172 171 172 175 175 170 165 158 156 158 156 153 153 146 135 135 138 138 130 111 104 102 96 96 95 88 93 89 65
196 195 197 195 192 193 193 194 192 189 187 184 181 181 180 180 183 184 182 174 165 164 167 165 163 160 153 150 155 156 147 136 127 134 147 144 127 118 64 324 113 106
195 196 198 198 197 198 197 195 195 194 192 189 189 190 188 187 189 192 190 179 171 173 177 174 176 177 169 164 169 167 160 157 150 157 169 166 156 154 178 247 183 151
197 198 197 197 198 203 204 198 197 198 195 194 194 195 195 192 190 190 189 186 182 183 187 184 185 189 181 173 176 174 177 194 189 190 193 184 185 187 193 214 213 193
197 198 199 199 200 206 209 202 199 199 196 196 195 195 196 194 192 190 187 191 193 192 197 195 193 200 196 186 190 191 191 200 205 210 212 205 209 215 215 219 220 217
194 198 203 204 202 203 201 197 200 204 201 198 197 198 199 196 194 194 194 197 200 201 205 207 209 216 212 200 209 219 216 219 221 223 225 224 222 224 228 236 245 247
193 198 201 204 206 204 197 189 195 205 206 202 201 199 201 201 198 201 204 202 203 208 212 214 221 226 217 208 221 234 234 235 239 237 235 229 218 213 223 236 252 264
200 202 202 207 212 212 212 208 205 207 206 206 209 207 205 205 204 206 210 207 209 218 219 219 222 221 216 216 223 229 231 235 241 244 241 229 212 200 208 224 232 246
200 202 204 211 214 215 221 221 215 213 209 205 210 212 210 208 205 205 206 204 208 216 217 216 216 216 225 234 232 229 230 236 245 251 249 237 217 198 209 237 248 251
192 201 203 209 217 221 225 221 215 216 217 215 214 215 216 215 215 217 215 211 214 219 217 217 220 229 241 246 247 246 243 243 251 256 254 250 219 175 199 247 265 252
168 175 185 196 207 212 212 210 213 218 221 218 218 221 222 220 223 233 238 240 244 242 232 231 243 253 251 246 250 252 246 240 245 258 276 312 63 117 159 197 184 201
146 148 167 175 175 180 187 197 211 222 221 217 220 227 232 233 237 244 249 256 258 249 242 249 257 250 235 224 217 211 202 180 149 135 51 38 57 83 91 112 143 192
138 142 160 172 180 189 189 192 203 214 220 219 222 229 233 234 235 237 243 250 244 233 235 233 210 183 175 175 172 175 184 170 154 166 148 132 136 126 115 123 139 144
131 134 146 166 186 195 193 196 201 204 210 211 213 220 221 216 210 208 220 223 184 170 181 178 167 163 168 177 183 201 218 202 179 167 156 158 167 162 167 180 193 203
123 127 134 146 160 168 175 190 199 199 199 196 201 206 197 193 197 192 184 164 144 148 170 175 175 184 197 209 220 220 205 174 160 146 142 169 199 202 210 218 227 230
116 121 127 135 141 145 152 158 152 151 154 152 162 174 166 165 174 171 164 153 148 167 201 205 205 218 226 219 204 190 149 125 117 121 141 176 226 230 237 247 252 250
111 118 124 133 142 146 150 148 137 138 145 143 147 152 150 154 159 159 162 162 161 177 210 224 221 222 226 211 178 164 124 117 143 179 160 168 194 209 260 275 279 266
107 116 131 145 159 161 164 165 154 153 159 160 166 171 170 174 175 169 173 176 172 173 187 209 219 209 211 218 199 200 159 127 165 203 187 175 163 160 270 283 282 270
130 147 167 182 197 195 189 186 182 188 195 194 197 198 194 194 191 186 186 182 179 184 188 201 226 232 227 236 230 225 202 156 182 225 225 213 195 186 262 281 279 264
238 239 240 237 237 237 228 224 227 231 223 212 211 212 208 205 201 198 196 187 188 200 198 201 227 241 242 247 243 235 208 172 178 233 235 226 225 216 243 271 275 268